[[{"header":{"parameterUnit":"m.s-1","parameterCategory":1,"la1":30.2991,"la2":30.254,"lo1":-89.0895,"lo2":-89.0444,"dy":0.0017,"dx":0.0017,"nx":28,"ny":28,"refTime":"2023-09-05T09:00:00:Z","depth":0,"parameterNumber":2,"parameterNumberName":"U-component_of_WINDS"},"data":[0,0,0,0,0,0,0,0,0,0,0,0,0,0,0,0,0,0,0,0,0,0,0,0,0,0,0,0,0,0,0,0,0,0,0,0,0,0,0,0,0,0,0,0,0,0,0,0,0,0,0,0,0,0,0,0,0,0,-4.4132,-4.4131,0,-4.4093,-4.4093,-4.4093,-4.4035,-4.4034,-4.4033,-4.4032,-4.3992,-4.3992,-4.3991,0,0,0,0,0,0,0,0,0,0,0,0,0,-4.4155,-4.4155,-4.4132,-4.4131,-4.4131,-4.4093,-4.4093,-4.4092,-4.4035,-4.4034,-4.4033,-4.4032,-4.3992,-4.3992,-4.3991,0,0,0,0,0,0,0,0,0,0,0,0,0,-4.4134,-4.4155,-4.4132,-4.4098,-4.4094,-4.4094,-4.4093,-4.4092,-4.4036,-4.4034,-4.4033,-4.4031,-4.3992,-4.3992,-4.3991,-4.402,0,0,-4.3991,-4.3991,0,0,0,0,0,0,0,0,-4.4135,-4.4133,-4.4103,-4.41,-4.4096,-4.4068,-4.4086,-4.4068,-4.4036,-4.4058,-4.4032,-4.403,-4.4018,-4.4016,-4.4012,-4.4018,-4.4017,-4.3991,-4.3991,-4.399,-4.399,0,0,0,0,0,0,0,-4.4137,-4.4134,-4.4116,-4.4103,-4.4099,-4.4084,-4.408,-4.4083,-4.4047,-4.4056,-4.4052,-4.4048,-4.4016,-4.4012,-4.401,-4.4016,-4.3991,-4.399,-4.399,-4.399,-4.4044,-4.4046,0,0,0,0,0,0,-4.4143,-4.4136,-4.4118,-4.4115,-4.4112,-4.4085,-4.408,-4.4078,-4.4047,-4.404,-4.4049,-4.4045,-4.4013,-4.4011,-4.4009,-4.4039,-4.399,-4.399,-4.399,-4.4043,-4.4045,-4.4046,0,0,0,0,0,0,-4.4144,-4.4142,-4.4119,-4.4124,-4.412,-4.4086,-4.4085,-4.4078,-4.4074,-4.4042,-4.4035,-4.4052,-4.4012,-4.4009,-4.4018,-4.4037,-4.399,-4.399,-4.4041,-4.4043,-4.4045,-4.4102,0,0,0,0,0,0,-4.4145,-4.4143,-4.4153,-4.4125,-4.412,-4.4129,-4.4086,-4.4079,-4.4074,-4.4069,-4.4042,-4.4037,-4.401,-4.4018,-4.4018,-4.4036,-4.399,-4.4039,-4.4042,-4.4045,-4.4098,-4.4106,-4.4113,0,0,0,0,0,-4.4146,-4.4171,-4.4154,-4.4152,-4.4133,-4.4131,-4.4128,-4.4098,-4.4076,-4.4086,-4.4066,-4.4037,-4.4036,-4.402,-4.4018,-4.4037,-4.4037,-4.4041,-4.4044,-4.4095,-4.4105,-4.4113,0,0,0,0,0,0,-4.4201,-4.4166,-4.4147,-4.4164,-4.4151,-4.4121,-4.4133,-4.4109,-4.4101,-4.4096,-4.4059,-4.4053,-4.4067,-4.4053,-4.4036,-4.4064,-4.4032,-4.4036,-4.4071,-4.408,-4.4087,-4.4089,-4.399,0,0,0,0,0,-4.4216,-4.4217,-4.4186,-4.4204,-4.4198,-4.4167,-4.4165,-4.4143,-4.4127,-4.4121,-4.4101,-4.4087,-4.4083,-4.4081,-4.4076,-4.4097,-4.409,-4.4109,-4.4117,-4.4123,-4.4125,-4.4135,-4.4143,-4.4058,-4.4058,-4.4058,0,0,-4.4245,-4.4226,-4.4228,-4.4214,-4.4201,-4.4203,-4.4162,-4.4166,-4.4167,-4.4122,-4.4128,-4.4114,-4.4095,-4.411,-4.4116,-4.4099,-4.4148,-4.4127,-4.4132,-4.4132,-4.4139,-4.4147,-4.4155,-4.406,-4.406,-4.4059,0,0,-4.4298,-4.4285,-4.4297,-4.4286,-4.4267,-4.4246,-4.425,-4.4224,-4.4212,-4.4219,-4.4185,-4.4186,-4.418,-4.4168,-4.4162,-4.4213,-4.4186,-4.4212,-4.4249,-4.4259,-4.4266,-4.4271,-4.4288,-4.4295,-4.4216,-4.4216,-4.4216,0,-4.4336,-4.4337,-4.4307,-4.4312,-4.4307,-4.4268,-4.428,-4.427,-4.4251,-4.4248,-4.423,-4.4223,-4.4208,-4.4219,-4.4231,-4.4228,-4.423,-4.4214,-4.4267,-4.4273,-4.4278,-4.4293,-4.43,-4.4219,-4.4219,-4.4218,-4.4218,0,-4.4385,-4.4387,-4.4399,-4.4382,-4.4378,-4.4387,-4.4358,-4.4358,-4.4337,-4.4318,-4.4326,-4.4307,-4.4297,-4.4298,-4.4278,-4.4307,-4.4297,-4.4274,-4.4242,-4.4289,-4.4303,-4.4309,-4.4223,-4.4222,-4.4221,-4.4221,0,0,-4.447,-4.4437,-4.4441,-4.4433,-4.4411,-4.4411,-4.4419,-4.441,-4.441,-4.4399,-4.4403,-4.4401,-4.4379,-4.4372,-4.435,-4.4359,-4.4399,-4.4335,-4.4334,-4.4346,-4.4429,-4.4445,-4.4452,-4.4383,-4.4384,-4.4385,-4.443,0,-4.4517,-4.4528,-4.4501,-4.4519,-4.4519,-4.4483,-4.449,-4.4477,-4.446,-4.4458,-4.444,-4.4438,-4.441,-4.4406,-4.4413,-4.4393,-4.4415,-4.439,-4.4385,-4.4386,-4.4389,-4.446,-4.4477,-4.452,-4.4435,-4.4436,-4.4437,0,-4.4573,-4.4565,-4.4583,-4.456,-4.4559,-4.4566,-4.4555,-4.4554,-4.4539,-4.4526,-4.4519,-4.4494,-4.4499,-4.447,-4.4477,-4.446,-4.4457,-4.4448,-4.4449,-4.4445,-4.4413,-4.4457,-4.4534,-4.454,-4.4446,-4.4445,-4.4444,0,-4.4632,-4.4626,-4.4635,-4.4629,-4.4603,-4.4608,-4.4597,-4.4581,-4.4577,-4.4568,-4.4565,-4.4558,-4.4553,-4.4547,-4.4521,-4.4502,-4.453,-4.4499,-4.4519,-4.4519,-4.4524,-4.4524,-4.46,-4.4526,-4.4526,-4.4526,-4.4526,0,-4.4686,-4.4698,-4.4661,-4.4667,-4.4679,-4.4648,-4.4661,-4.4647,-4.4633,-4.4635,-4.4603,-4.4606,-4.4572,-4.457,-4.455,-4.4558,-4.4557,-4.4546,-4.454,-4.4547,-4.4548,-4.4543,-4.4539,-4.4528,-4.4527,-4.4527,-4.4527,0,-4.4752,-4.4728,-4.4736,-4.4711,-4.4705,-4.4715,-4.4693,-4.4697,-4.4679,-4.4682,-4.4681,-4.4653,-4.465,-4.4624,-4.4615,-4.4601,-4.4616,-4.4606,-4.4621,-4.4617,-4.4638,-4.4635,-4.4711,-4.4719,-4.4643,-4.4643,-4.4644,0,-4.4788,-4.4796,-4.4772,-4.4771,-4.4762,-4.4762,-4.4758,-4.4729,-4.4726,-4.471,-4.4716,-4.4711,-4.4705,-4.4702,-4.468,-4.4673,-4.4661,-4.4688,-4.4659,-4.4667,-4.4659,-4.4658,-4.4658,-4.4693,-4.4694,-4.4695,-4.4696,0,-4.4852,-4.484,-4.4836,-4.4829,-4.4826,-4.4818,-4.4809,-4.481,-4.4778,-4.4777,-4.4774,-4.4769,-4.4761,-4.4755,-4.4745,-4.4733,-4.4709,-4.4705,-4.4709,-4.4716,-4.4724,-4.4718,-4.4636,-4.4703,-4.4702,-4.4702,-4.4701,-4.4701,-4.4903,-4.4908,-4.4893,-4.4889,-4.488,-4.4872,-4.4874,-4.4857,-4.4854,-4.4845,-4.4828,-4.4828,-4.4812,-4.4796,-4.4787,-4.4785,-4.4771,-4.4777,-4.4778,-4.478,-4.4783,-4.4726,-4.4784,-4.4783,-4.4783,-4.4783,-4.4783,0,-4.4965,-4.4953,-4.4951,-4.4939,-4.4936,-4.4915,-4.4904,-4.4903,-4.4903,-4.4891,-4.4886,-4.4883,-4.4878,-4.4857,-4.4849,-4.4852,-4.4841,-4.4851,-4.485,-4.4847,-4.4797,-4.4794,-4.486,-4.486,-4.486,-4.486,-4.486,-4.486,-4.4996,-4.5004,-4.4991,-4.4994,-4.4982,-4.4981,-4.4976,-4.4969,-4.4959,-4.4957,-4.4953,-4.4939,-4.4924,-4.4915,-4.491,-4.4903,-4.4901,-4.4915,-4.4905,-4.4858,-4.4851,-4.4843,-4.484,-4.4915,-4.4916,-4.4955,-4.4955,-4.4956]},{"header":{"parameterUnit":"m.s-1","parameterCategory":1,"la1":30.2991,"la2":30.254,"lo1":-89.0895,"lo2":-89.0444,"dy":0.0017,"dx":0.0017,"nx":28,"ny":28,"refTime":"2023-09-05T09:00:00:Z","depth":0,"parameterNumber":3,"parameterNumberName":"V-component_of_WINDS"},"data":[0,0,0,0,0,0,0,0,0,0,0,0,0,0,0,0,0,0,0,0,0,0,0,0,0,0,0,0,0,0,0,0,0,0,0,0,0,0,0,0,0,0,0,0,0,0,0,0,0,0,0,0,0,0,0,0,0,0,3.5321,3.532,0,3.5285,3.5285,3.5284,3.5258,3.5258,3.5258,3.5258,3.5217,3.5216,3.5215,0,0,0,0,0,0,0,0,0,0,0,0,0,3.5363,3.5362,3.5321,3.532,3.532,3.5285,3.5285,3.5284,3.5258,3.5258,3.5258,3.5258,3.5217,3.5216,3.5215,0,0,0,0,0,0,0,0,0,0,0,0,0,3.5338,3.5362,3.5321,3.5303,3.5301,3.5285,3.5285,3.5284,3.5258,3.5258,3.5258,3.5257,3.5218,3.5216,3.5215,3.5213,0,0,3.5211,3.521,0,0,0,0,0,0,0,0,3.5339,3.5336,3.5306,3.5304,3.5302,3.5276,3.5285,3.526,3.5258,3.5274,3.5258,3.5257,3.5236,3.5234,3.5227,3.5211,3.5209,3.5211,3.521,3.5209,3.5209,0,0,0,0,0,0,0,3.5341,3.5337,3.5306,3.5305,3.5303,3.5296,3.5292,3.528,3.5257,3.5273,3.5271,3.5267,3.5235,3.5229,3.5226,3.5209,3.5211,3.521,3.5209,3.5208,3.519,3.519,0,0,0,0,0,0,3.5346,3.5339,3.5308,3.5305,3.532,3.5295,3.5291,3.5284,3.5258,3.5253,3.5268,3.5266,3.5231,3.5228,3.5225,3.5221,3.5209,3.5208,3.5207,3.5189,3.519,3.519,0,0,0,0,0,0,3.5347,3.5343,3.5309,3.5322,3.5317,3.5295,3.5288,3.5284,3.5277,3.5254,3.5249,3.5265,3.5231,3.5227,3.5217,3.5219,3.5207,3.5206,3.5189,3.5189,3.519,3.5213,0,0,0,0,0,0,3.5348,3.5344,3.5344,3.5322,3.5316,3.5302,3.5288,3.5283,3.5276,3.5274,3.525,3.5246,3.523,3.5219,3.5215,3.5217,3.5205,3.5189,3.5189,3.519,3.5212,3.5215,3.5217,0,0,0,0,0,3.535,3.535,3.5344,3.534,3.5316,3.5303,3.5299,3.5282,3.5276,3.5275,3.526,3.5247,3.522,3.5218,3.5214,3.5215,3.5188,3.5189,3.519,3.5211,3.5214,3.5216,0,0,0,0,0,0,3.5371,3.5347,3.5339,3.5333,3.532,3.5298,3.5296,3.5286,3.5273,3.5271,3.525,3.5245,3.5237,3.5225,3.5223,3.5212,3.5202,3.5202,3.522,3.5223,3.5225,3.5227,3.5204,0,0,0,0,0,3.5375,3.5368,3.5347,3.5344,3.5338,3.5319,3.5312,3.5301,3.5286,3.5279,3.5264,3.5249,3.5237,3.5229,3.5217,3.5211,3.5205,3.521,3.5212,3.5214,3.5214,3.521,3.5212,3.5192,3.5192,3.5192,0,0,3.5383,3.5369,3.5366,3.5348,3.5336,3.5328,3.5314,3.5306,3.5299,3.5278,3.5268,3.5256,3.5238,3.523,3.5225,3.522,3.5218,3.5215,3.5217,3.5215,3.5211,3.5213,3.5215,3.5193,3.5193,3.5193,0,0,3.5393,3.5383,3.5379,3.5368,3.5352,3.534,3.5339,3.5319,3.5311,3.5301,3.5285,3.5276,3.5256,3.5244,3.5236,3.5244,3.5231,3.524,3.5251,3.5248,3.5249,3.5251,3.5253,3.5254,3.524,3.5241,3.5241,0,3.5405,3.5393,3.5378,3.5371,3.5364,3.5346,3.5342,3.5332,3.5312,3.5307,3.5301,3.5277,3.5263,3.5252,3.5255,3.5248,3.5246,3.5242,3.5251,3.5252,3.5253,3.5255,3.5256,3.5242,3.5242,3.5241,3.5241,0,3.5408,3.5401,3.5399,3.5383,3.5375,3.5369,3.5352,3.5346,3.5336,3.5324,3.5314,3.5298,3.5282,3.5279,3.5268,3.5267,3.5264,3.5255,3.5244,3.5256,3.5258,3.5258,3.5243,3.5243,3.5243,3.5242,0,0,3.5429,3.5406,3.5405,3.5398,3.5379,3.5373,3.5366,3.5353,3.5348,3.5336,3.5329,3.5314,3.5306,3.5296,3.5284,3.5281,3.5289,3.5272,3.5271,3.5275,3.5286,3.5293,3.5294,3.5281,3.5281,3.5281,3.5288,0,3.5436,3.5425,3.5412,3.5405,3.5398,3.5382,3.5377,3.5365,3.5354,3.5345,3.5332,3.5322,3.5312,3.5306,3.5303,3.5288,3.529,3.5288,3.5274,3.5273,3.5278,3.5295,3.5302,3.5309,3.5288,3.5289,3.5289,0,3.5443,3.5433,3.5426,3.541,3.5406,3.5401,3.5389,3.5381,3.5367,3.5359,3.5349,3.5337,3.5329,3.532,3.5309,3.5307,3.5301,3.5293,3.5293,3.529,3.5281,3.5292,3.5311,3.5311,3.529,3.5289,3.5289,0,3.5458,3.5443,3.5437,3.5431,3.5412,3.5409,3.5401,3.5387,3.538,3.5368,3.5364,3.5351,3.5344,3.5334,3.5318,3.5313,3.5308,3.5298,3.53,3.5301,3.5299,3.5299,3.5316,3.5296,3.5296,3.5296,3.5296,0,3.5467,3.5463,3.5444,3.5441,3.5436,3.5421,3.5416,3.5406,3.5394,3.5387,3.5373,3.5367,3.5347,3.5338,3.5326,3.5318,3.5315,3.5307,3.5304,3.5308,3.5309,3.5303,3.5302,3.5297,3.5296,3.5296,3.5296,0,3.5483,3.547,3.5463,3.5446,3.5442,3.5439,3.5424,3.542,3.5409,3.5401,3.5398,3.538,3.5369,3.5353,3.5337,3.5328,3.5323,3.5317,3.5328,3.5326,3.5329,3.5328,3.5341,3.5342,3.5323,3.5323,3.5323,0,3.5489,3.5486,3.547,3.5466,3.5458,3.5451,3.5444,3.5429,3.5423,3.5408,3.5405,3.5394,3.5384,3.5367,3.5352,3.534,3.5334,3.5339,3.5331,3.5336,3.5333,3.5333,3.5333,3.534,3.5341,3.5341,3.5341,0,3.5502,3.5496,3.5488,3.5478,3.5471,3.5462,3.5453,3.5449,3.5432,3.5426,3.5416,3.5408,3.5393,3.5382,3.5368,3.5358,3.5346,3.5344,3.5344,3.5348,3.5354,3.535,3.5332,3.5343,3.5343,3.5343,3.5343,3.5343,3.5512,3.5509,3.5498,3.549,3.5481,3.5473,3.5468,3.5458,3.5449,3.5437,3.5428,3.5419,3.5405,3.5386,3.5377,3.5368,3.5363,3.5363,3.5363,3.5363,3.5364,3.5356,3.5366,3.5366,3.5365,3.5365,3.5365,0,3.5524,3.5516,3.5509,3.5497,3.549,3.5482,3.5471,3.5466,3.5458,3.5448,3.5439,3.5427,3.5417,3.5402,3.539,3.5386,3.538,3.5383,3.5383,3.5381,3.5369,3.5371,3.5388,3.5388,3.5388,3.5388,3.5388,3.5388,3.5529,3.5523,3.5516,3.5507,3.5499,3.549,3.5485,3.5477,3.5468,3.5457,3.5449,3.544,3.5427,3.5414,3.5404,3.54,3.5396,3.54,3.5394,3.5383,3.5381,3.5379,3.538,3.5399,3.5399,3.5406,3.5406,3.5406]}]]